Location: *
(46.4000°N, 12.6667°E)
Time: 17:11:00
(UTC+00:00)

Envisat - Pass Details

Date: 06 December 2021
Orbit: 764 x 766 km, 98.2° (Epoch: 16 January)

Event Time Altitude Azimuth Distance (km) Brightness Sun altitude
Rises 05:56:15 0° 358° (N) 3,245 6.0 -7.1°
Reaches altitude 10° 05:59:31 10° 336° (NNW) 2,313 5.0 -6.6°
Maximum altitude 06:02:17 15° 303° (WNW) 1,987 4.5 -6.2°
Drops below altitude 10° 06:05:02 10° 270° (W) 2,304 4.9 -5.7°
Sets 06:08:18 0° 247° (WSW) 3,225 5.8 -5.2°
